Flag for U.S.A. Weather past 2 weeks in Newport News, Virginia, U.S.A.

Now
38 °F

Sunny.


Feels Like: 33 °F
Forecast: 26 / 45 °F
Wind: 6 mph from Southeast

Location: Newport News / Williamsburg International Airport

Current Time: Jan 29, 2015 at 11:39:28 AM

Latest Report: Jan 29, 2015 at 10:54 AM


Visibility: 10 mi

Pressure: 30.33 "Hg

Humidity: 51%

Dew point: 21 °F

Location of Newport NewsLocation

Historic Weather in Newport News — Graph

°F

Newport News temperature yesterday

Maximum temperature yesterday: 43 °F (at 2:54 PM)
Minimum temperature yesterday: 29 °F (at 6:54 AM)
Average temperature yesterday: 35 °F

Past Weeks' High & Low Weather Summary

 TemperatureHumidityPressure
High62 °F (Jan 20, 2:54 PM)93% (Jan 22, 10:03 AM)30.45 "Hg (Jan 22, 10:03 AM)
Low23 °F (Jan 29, 6:54 AM)23% (Jan 28, 4:54 PM)29.44 "Hg (Jan 24, 12:54 PM)
Average41 °F69%30.01 "Hg
* Reported Jan 14 9:54 AM — Jan 29 9:54 AM, Newport News, Weather by CustomWeather, © 2014

Note: Actual official high and low records may vary slightly from our data, if they occured in-between our weather recording intervals... More about our weather records

Advertising

Newport News weather history for previous 24 hours

 ConditionsComfort  
Time TempWeatherWind HumidityBarometerVisibility
9:54 AM
Jan 29
36 °FSunny.6 mph54%30.34 "Hg10 mi
8:54 AM33 °FSunny.No wind56%30.35 "Hg10 mi
7:54 AM28 °FSunny.No wind69%30.36 "Hg10 mi
6:54 AM23 °FClear.5 mph72%30.34 "Hg10 mi
5:54 AM26 °FClear.5 mph60%30.33 "Hg10 mi
4:54 AM28 °FClear.5 mph53%30.32 "Hg10 mi
3:54 AM26 °FClear.3 mph60%30.34 "Hg10 mi
2:54 AM29 °FClear.No wind51%30.34 "Hg10 mi
1:54 AM30 °FClear.3 mph45%30.34 "Hg10 mi
12:54 AM30 °FClear.6 mph43%30.33 "Hg10 mi
11:54 PM
Jan 28
31 °FClear.5 mph40%30.34 "Hg10 mi
10:54 PM32 °FClear.8 mph38%30.33 "Hg10 mi
9:54 PM33 °FClear.7 mph38%30.32 "Hg10 mi
8:54 PM33 °FClear.5 mph36%30.30 "Hg10 mi
7:54 PM34 °FClear.3 mph37%30.29 "Hg10 mi
6:54 PM36 °FClear.6 mph30%30.27 "Hg10 mi
5:54 PM37 °FClear.7 mph30%30.25 "Hg10 mi
4:54 PM41 °FSunny.9 mph23%30.22 "Hg10 mi
3:54 PM43 °FSunny.14 mph24%30.21 "Hg10 mi
2:54 PM43 °FSunny.10 mph25%30.19 "Hg10 mi
1:54 PM42 °FSunny.6 mph25%30.19 "Hg10 mi
12:54 PM40 °FSunny.13 mph30%30.20 "Hg10 mi
11:54 AM38 °FSunny.14 mph34%30.22 "Hg10 mi
Weather by CustomWeather, © 2014

See weather overviewHow to use our weather pages